TimeCEST,TemperatureF,Dew PointF,Humidity,Sea Level PressureIn,VisibilityMPH,Wind Direction,Wind SpeedMPH,Gust SpeedMPH,PrecipitationIn,Events,Conditions,WindDirDegrees,DateUTC
12:00 AM,62.6,51.8,68,30.04,-9999.0,NNE,8.1,-,N/A,,Clear,30,2013-06-05 22:00:00
12:30 AM,62.6,50.0,63,30.04,-9999.0,North,8.1,-,N/A,,Clear,10,2013-06-05 22:30:00
1:00 AM,60.8,50.0,68,30.04,-9999.0,North,9.2,-,N/A,,Clear,10,2013-06-05 23:00:00
1:30 AM,60.8,51.8,72,30.04,-9999.0,North,8.1,-,N/A,,Clear,360,2013-06-05 23:30:00
2:00 AM,59.0,51.8,77,30.04,-9999.0,North,9.2,-,N/A,,Clear,360,2013-06-06 00:00:00
2:30 AM,57.2,51.8,82,30.04,-9999.0,North,10.4,-,N/A,,Clear,10,2013-06-06 00:30:00
3:00 AM,57.2,51.8,82,30.01,5.0,North,10.4,-,N/A,,Unknown,10,2013-06-06 01:00:00
3:30 AM,55.4,51.8,88,30.01,4.3,North,10.4,-,N/A,,Unknown,10,2013-06-06 01:30:00
4:00 AM,55.4,51.8,88,30.01,4.3,North,10.4,-,N/A,,Unknown,10,2013-06-06 02:00:00
4:30 AM,55.4,51.8,88,30.01,3.7,North,10.4,-,N/A,,Unknown,10,2013-06-06 02:30:00
5:00 AM,55.4,51.8,88,30.01,3.1,North,9.2,-,N/A,,Partly Cloudy,10,2013-06-06 03:00:00
5:30 AM,55.4,51.8,88,30.01,-9999.0,North,10.4,-,N/A,,Partly Cloudy,10,2013-06-06 03:30:00
6:00 AM,53.6,50.0,88,30.01,2.8,North,10.4,-,N/A,,Partly Cloudy,10,2013-06-06 04:00:00
6:30 AM,53.6,50.0,88,30.04,2.8,North,9.2,-,N/A,,Mist,10,2013-06-06 04:30:00
7:00 AM,53.6,51.8,94,30.04,2.8,North,10.4,-,N/A,,Mist,10,2013-06-06 05:00:00
7:30 AM,55.4,51.8,88,30.04,3.1,North,10.4,-,N/A,,Mist,10,2013-06-06 05:30:00
8:00 AM,57.2,51.8,82,30.04,3.7,NNE,10.4,-,N/A,,Unknown,20,2013-06-06 06:00:00
8:30 AM,59.0,53.6,82,30.04,4.3,NNE,8.1,-,N/A,,Unknown,20,2013-06-06 06:30:00
9:00 AM,60.8,53.6,77,30.04,5.0,NNE,6.9,-,N/A,,Unknown,30,2013-06-06 07:00:00
9:30 AM,62.6,53.6,72,30.04,-9999.0,NE,6.9,-,N/A,,Clear,50,2013-06-06 07:30:00
10:00 AM,66.2,55.4,68,30.04,-9999.0,NE,6.9,-,N/A,,Clear,40,2013-06-06 08:00:00
10:30 AM,68.0,55.4,64,30.04,-9999.0,NNE,5.8,-,N/A,,Clear,30,2013-06-06 08:30:00
11:00 AM,68.0,57.2,68,30.04,-9999.0,NE,5.8,-,N/A,,Clear,40,2013-06-06 09:00:00
11:30 AM,69.8,57.2,64,30.04,-9999.0,NE,5.8,-,N/A,,Clear,40,2013-06-06 09:30:00
12:00 PM,73.4,57.2,57,30.04,-9999.0,NNE,4.6,-,N/A,,Clear,30,2013-06-06 10:00:00
12:30 PM,75.2,57.2,53,30.04,-9999.0,NNE,6.9,-,N/A,,Clear,30,2013-06-06 10:30:00
1:00 PM,75.2,57.2,53,30.04,6.2,NE,6.9,-,N/A,,Partly Cloudy,50,2013-06-06 11:00:00
1:30 PM,77.0,57.2,50,30.04,6.2,ENE,9.2,-,N/A,,Partly Cloudy,60,2013-06-06 11:30:00
2:00 PM,77.0,57.2,50,30.04,6.2,East,10.4,-,N/A,,Partly Cloudy,80,2013-06-06 12:00:00
2:30 PM,78.8,51.8,39,30.04,6.2,ENE,10.4,-,N/A,,Partly Cloudy,60,2013-06-06 12:30:00
3:00 PM,78.8,55.4,44,30.04,6.2,ENE,9.2,-,N/A,,Partly Cloudy,70,2013-06-06 13:00:00
3:30 PM,78.8,57.2,47,30.01,6.2,East,6.9,-,N/A,,Scattered Clouds,80,2013-06-06 13:30:00
4:00 PM,80.6,57.2,45,30.01,6.2,ENE,11.5,-,N/A,,Scattered Clouds,60,2013-06-06 14:00:00
4:30 PM,78.8,53.6,42,30.01,6.2,NE,10.4,-,N/A,,Partly Cloudy,40,2013-06-06 14:30:00
5:00 PM,80.6,51.8,37,30.01,6.2,ENE,9.2,-,N/A,,Partly Cloudy,70,2013-06-06 15:00:00
5:30 PM,78.8,50.0,36,30.01,6.2,ESE,8.1,-,N/A,,Scattered Clouds,110,2013-06-06 15:30:00
6:00 PM,78.8,50.0,36,30.01,6.2,ESE,9.2,-,N/A,,Scattered Clouds,110,2013-06-06 16:00:00
6:30 PM,78.8,50.0,36,30.01,6.2,East,9.2,-,N/A,,Scattered Clouds,90,2013-06-06 16:30:00
7:00 PM,78.8,50.0,36,29.98,6.2,East,9.2,-,N/A,,Scattered Clouds,100,2013-06-06 17:00:00
7:30 PM,77.0,53.6,44,30.01,6.2,ENE,5.8,-,N/A,,Scattered Clouds,60,2013-06-06 17:30:00
8:00 PM,77.0,55.4,47,30.01,6.2,East,6.9,-,N/A,,Mostly Cloudy,80,2013-06-06 18:00:00
8:30 PM,77.0,55.4,47,30.01,6.2,East,5.8,-,N/A,,Mostly Cloudy,80,2013-06-06 18:30:00
9:00 PM,75.2,55.4,50,30.01,6.2,NE,5.8,-,N/A,,Mostly Cloudy,40,2013-06-06 19:00:00
9:30 PM,73.4,57.2,57,30.04,-9999.0,NNE,4.6,-,N/A,,Clear,30,2013-06-06 19:30:00
10:00 PM,73.4,53.6,50,30.04,-9999.0,Variable,2.3,-,N/A,,Clear,0,2013-06-06 20:00:00
10:30 PM,71.6,57.2,60,30.04,-9999.0,East,6.9,-,N/A,,Clear,90,2013-06-06 20:30:00
11:04 PM,71.6,55.4,57,30.04,-9999.0,East,6.9,-,N/A,,Clear,100,2013-06-06 21:04:00
11:30 PM,71.6,55.4,57,30.04,-9999.0,East,6.9,-,N/A,,Clear,90,2013-06-06 21:30:00